SL-14 R/B

Satellite information

Favourite Embed

Satellite Type and Status

ROCKET BODYIN ORBIT

Key statistics

Satellite SL-14 R/B at a glance.

Uptime

13773

Days in orbit

Revolutions

≈ 14.9

Per day

Orbit

LEO

Low Earth Orbit

Inclination

82.5

Latest

Satellite identification and parameters

Extended collection of information and parameters for SL-14 R/B.

Object identification

Identified? True

Debris? False

Object name: SL-14 R/B

International designator: 1987-088B

Object number (NORAD): 18422

Object ID (CCSDS): 18422

Country: COMMONWEALTH OF INDEPENDENT STATES (CIS)

Current information (Y/N): Y

RCS size: LARGE

Orbital parameters

Period: 96.968 minutes

Inclination: 82.5121 deg

SMA: 6991.654 km

Apoapsis: 627.666 km

Periapsis: 599.371 km

RAAN: 300.6565 deg

Eccentricy: 0.0020235

Argument of periapsis: 110.0807 deg

Mean anomaly: 250.2589 deg

Mean motion: 14.85022015 rev/day

Mean motion (dot): 0.00000384 rev/day2

B* drag term: 0.00004197 1/REarth

Two-line elements (TLE)

Creation date: July 4, 2025, 6:39 p.m.

Reference frame: TEME

Reference center: EARTH

Epoch: July 4, 2025, 10:24 a.m. UTC

TLE line 0: 0 SL-14 R/B

TLE line 1: 1 18422U 87088B 25185.43390009 .00000384 00000-0 41970-4 0 9997

TLE line 2: 2 18422 82.5121 300.6565 0020235 110.0807 250.2589 14.85022015 16457

Live tracking on map

Real-time ground track for satellite SL-14 R/B.

In-orbit conjunctions

A list of the most updated potential collisions computed for object SL-14 R/B.

Target Orbit TCA Probability of collision Miss distance Type
FENGYUN 1C DEB SSO 2024-09-26 19:06:29 0.0007517105 856.0 (m) DEBRIS

Associated space launch

Tselina-D satellites provided detailed observation of radio sources detected by the smaller Tselina-O satellites as part of the Tselina ELINT system.

SL-14 R/B was lifted into orbit during the mission ‘Tsiklon-3 | Tselina-D 62’, on board a Tsiklon-3 space rocket.

The launch took place on Oct. 20, 1987, 9:09 a.m. from 32/1.

For more information about the launch, click the button.

Launch to space Tsiklon-3 | Tselina-D 62
Tsiklon-3 | Tselina-D 62

Agency: N/A

Status: Launch Successful

Launch date: Oct. 20, 1987, 9:09 a.m. UTC

Rocket: Tsiklon-3

Launch pad: 32/1

Location: Plesetsk Cosmodrome, Russian Federation

...

Latest news about this satellite

There are no fresh news available about this satellite. Check back as we update our databases every day.


Newsletter sign-up

Weekly statistics, charts and insights to help you stay on top of the space industry.